Location: C.E.K. Mees Observatory
(42.7003°N, 77.4088°W)
Time: 20:07:04
(UTC-04:00)

N. Korean satellite - Pass Details

Date: 08 October 2017
Orbit: 459 x 517 km, 97.2° (Epoch: 18 October)

Event Time Altitude Azimuth Distance (km) Brightness Sun altitude
Rises 20:10:09 0° 205° (SSW) 2,573 10.5 -17.6°
Reaches altitude 10° 20:12:53 10° 228° (SW) 1,684 9.8 -18.1°
Maximum altitude 20:15:09 16° 267° (W) 1,355 9.8 -18.6°
Drops below altitude 10° 20:17:25 10° 306° (NW) 1,672 10.2 -19.0°
Sets 20:20:08 0° 329° (NNW) 2,545 10.8 -19.5°
